Change the Weather History Date:

Monday, June 24, 2013

  Actual Average Record
Temperature  
Mean Temperature 81 °F -  
Max Temperature 90 °F 82 °F 100 °F (1998)
Min Temperature 71 °F 61 °F 48 °F (2007)
Cooling Degree Days 16    
Growing Degree Days 31 (Base 50)    
Moisture  
Dew Point 70 °F    
Average Humidity 75    
Maximum Humidity 93    
Minimum Humidity 46    
Precipitation  
Precipitation 0.00 in - - ()
Sea Level Pressure  
Sea Level Pressure 30.07 in    
Wind  
Wind Speed 3 mph (WSW)    
Max Wind Speed 8 mph    
Max Gust Speed -    
Visibility 9 miles    
Events Thunderstorm    
Averages and records for this station are not official NWS values.
T = Trace of Precipitation, MM = Missing Value Source: NWS Daily Summary

Daily Weather History Graph

Daily Weather History Graph

Search for Another Location

Airport or City:

Trip Planner

Search our weather history database for the weather conditions in past years. The results will help you decide how hot, cold, wet, or windy it might be!

Date:

Astronomy

Jun. 24, 2013 Rise Set
Actual Time 5:34 AM EDT 8:31 PM EDT
Civil Twilight 5:02 AM EDT 9:03 PM EDT
Nautical Twilight 4:21 AM EDT 9:44 PM EDT
Astronomical Twilight 3:33 AM EDT 10:31 PM EDT
Moon 9:32 PM EDT (6/24) 6:58 AM EDT (6/24)
Length of Visible Light 16h 01m
Length of Day
14h 56m
Full, 98% of the Moon is Illuminated
Jun 24
Full
Jun 30
Last Quarter
Jul 8
New
Jul 15
First Quarter
Jul 22
Full

Hourly Weather History & Observations

Time (EDT) Temp. Heat Index Dew Point Humidity Pressure Visibility Wind Dir Wind Speed Gust Speed Precip Events Conditions
12:54 AM 73.9 °F - 71.1 °F 91% 30.11 in 10.0 mi Calm Calm - N/A   Scattered Clouds
1:54 AM 73.0 °F - 70.0 °F 90% 30.10 in 10.0 mi Variable 3.5 mph - N/A   Scattered Clouds
2:54 AM 73.0 °F - 71.1 °F 93% 30.10 in 10.0 mi SW 3.5 mph - N/A   Clear
3:54 AM 73.0 °F - 71.1 °F 93% 30.10 in 8.0 mi WSW 3.5 mph - N/A   Clear
4:54 AM 73.0 °F - 71.1 °F 93% 30.10 in 7.0 mi Calm Calm - N/A   Clear
5:54 AM 73.0 °F - 71.1 °F 93% 30.10 in 6.0 mi Calm Calm - N/A   Clear
6:54 AM 73.9 °F - 71.1 °F 91% 30.11 in 7.0 mi WSW 3.5 mph - N/A   Clear
7:54 AM 75.9 °F - 72.0 °F 87% 30.12 in 8.0 mi SW 5.8 mph - N/A   Partly Cloudy
8:18 AM 78.8 °F - 73.4 °F 83% 30.12 in 9.0 mi West 6.9 mph - N/A   Partly Cloudy
8:54 AM 80.1 °F 83.8 °F 72.0 °F 76% 30.12 in 9.0 mi West 6.9 mph - N/A   Clear
9:54 AM 82.0 °F 86.7 °F 72.0 °F 71% 30.11 in 8.0 mi WSW 5.8 mph - N/A   Clear
10:54 AM 84.9 °F 90.1 °F 71.1 °F 63% 30.11 in 10.0 mi Variable 5.8 mph - N/A   Clear
11:54 AM 87.1 °F 93.6 °F 72.0 °F 61% 30.10 in 10.0 mi Variable 5.8 mph - N/A   Clear
12:54 PM 88.0 °F 93.8 °F 71.1 °F 57% 30.10 in 10.0 mi WSW 6.9 mph - N/A   Clear
1:54 PM 89.1 °F 95.0 °F 71.1 °F 55% 30.07 in 10.0 mi SW 5.8 mph - N/A   Clear
2:54 PM 89.1 °F 95.0 °F 71.1 °F 55% 30.04 in 10.0 mi SW 8.1 mph - N/A   Clear
3:54 PM 89.1 °F 95.0 °F 71.1 °F 55% 30.04 in 10.0 mi Variable 5.8 mph - N/A   Scattered Clouds
4:54 PM 84.9 °F 85.4 °F 62.1 °F 46% 30.02 in 10.0 mi Calm Calm - N/A   Partly Cloudy
5:54 PM 84.0 °F 86.5 °F 66.9 °F 56% 30.01 in 10.0 mi Calm Calm - N/A   Clear
6:54 PM 82.0 °F 85.9 °F 70.0 °F 67% 30.02 in 10.0 mi East 4.6 mph - N/A   Clear
7:54 PM 81.0 °F 83.8 °F 68.0 °F 65% 30.02 in 10.0 mi Calm Calm - N/A   Partly Cloudy
8:06 PM 80.6 °F 83.9 °F 69.8 °F 70% 30.03 in 10.0 mi Calm Calm - N/A Thunderstorm Thunderstorm
8:54 PM 80.1 °F 83.2 °F 70.0 °F 71% 30.01 in 10.0 mi NW 3.5 mph - N/A   Partly Cloudy
9:54 PM 75.0 °F - 70.0 °F 84% 30.03 in 10.0 mi Calm Calm - N/A   Clear
10:54 PM 73.0 °F - 69.1 °F 87% 30.04 in 9.0 mi Calm Calm - N/A   Clear
11:54 PM 71.1 °F - 69.1 °F 93% 30.03 in 7.0 mi Calm Calm - N/A   Clear